Domov               UVHVVR             MKGP            O straneh              
ZDRAVSTVENO VARSTVO RASTLIN
  MREŽA AGROMET. POSTAJ
 ► PROGNOSTIČNA OBVESTILA
AGROMETEOROLOŠKI PODATKI -
ARSO
OBVLADOVANJE TVEGANJ ZARADI
NEUGODNIH VREMENSKIH RAZMER
  ► NARAVNE NESREČE
  ► SUŠA/MOČA
  ► NAMAKANJE
  ► ŽLED (gozdarstvo)
KARTOGRAFSKI PRIKAZI
SPLETNE POVEZAVE
PROJEKTI IN PUBLIKACIJE

AGROMETEOROLOŠKA MREŽA: VREMENSKE POSTAJE IN FENOLOŠKA OPAZOVANJA

Pregled podatkov za lokacijo Podbrezje, meteorološka postaja 855704

Pregled senzorjev na lokaciji

ID Ime Zadnja
vrednost
Datum
zadnje
spremembe
Tip
senzorja
4021 Temperatura 2 m ( °C) 21,43 °C 19.10.2017 15:30 50YA
4022 Relativna vlaga 2 m (% RH) 44,16 % RH 19.10.2017 15:30 50YA
4023 Omočenost lista (U) 0 U 19.10.2017 15:30 A730WET
4024 Padavine 0.2 mm (mm) 0 mm 19.10.2017 15:30 Rain-O-Matic

Pregled podatkov zadnjih 24 ur

Zap.
št.
Datum in čas Podbrezje
Omočenost
lista
Padavine
0.2
mm
Relativna
vlaga
2
m
Temperatura
2
m
0 19.10.2017 14:30 0 0 44,16 21,43
1 19.10.2017 14:00 0 0 44,03 21,21
2 19.10.2017 13:30 0 0 46,04 20,78
3 19.10.2017 13:00 0 0 47,04 20,43
4 19.10.2017 12:30 0 0 48,91 19,77
5 19.10.2017 12:00 0 0 47,97 19,3
6 19.10.2017 11:30 0 0 45,05 18,7
7 19.10.2017 11:00 0 0 43,25 18,42
8 19.10.2017 10:30 0 0 47,91 16,83
9 19.10.2017 10:00 0 0 57,82 14,27
10 19.10.2017 09:30 0 0 64,3 12,59
11 19.10.2017 09:00 2 0 68,88 11,42
12 19.10.2017 08:30 10 0 76,36 9,58
13 19.10.2017 08:00 10 0 84,73 7,47
14 19.10.2017 07:30 10 0 93,01 5,14
15 19.10.2017 07:00 10 0 98,31 3,39
16 19.10.2017 06:30 10 0 98,12 3,2
17 19.10.2017 06:00 10 0 97,94 3,41
18 19.10.2017 05:30 10 0 97,69 3,59
19 19.10.2017 05:00 10 0 97,55 3,79
20 19.10.2017 04:30 10 0 97,12 4,06
21 19.10.2017 04:00 10 0 96,78 4,26
22 19.10.2017 03:30 10 0 96,02 4,61
23 19.10.2017 03:00 10 0 95,81 4,84
24 19.10.2017 02:30 10 0 94,92 5,17
25 19.10.2017 02:00 10 0 94,56 5,49
26 19.10.2017 01:30 10 0 94,55 5,58
27 19.10.2017 01:00 10 0 94,56 5,82
28 19.10.2017 00:30 10 0 93,93 6
29 19.10.2017 00:00 10 0 92,95 6,33
30 18.10.2017 23:30 10 0 91,74 6,67
31 18.10.2017 23:00 10 0 90,67 7,07
32 18.10.2017 22:30 10 0 88,91 7,59
33 18.10.2017 22:00 10 0 87,37 8,08
34 18.10.2017 21:30 10 0 84,9 8,57
35 18.10.2017 21:00 10 0 81,83 9,26
36 18.10.2017 20:30 10 0 79,69 9,71
37 18.10.2017 20:00 2 0 75,29 10,74
38 18.10.2017 19:30 7 0 74,57 12,28
39 18.10.2017 19:00 1 0 70,53 12,88
40 18.10.2017 18:30 0 0 62,89 13,58
41 18.10.2017 18:00 0 0 55,06 14,67
42 18.10.2017 17:30 0 0 48,07 16,26
43 18.10.2017 17:00 0 0 44,33 17,22
44 18.10.2017 16:30 0 0 39,58 18,83
© 2011 Ministrstvo za kmetijstvo, gozdarstvo in prehrano. Vse pravice pridržane.